FW7515 Weather Reports


Display with metric or nautical units.
time (UTC)temp
F
wind
direction
speed
MPH
gust
MPH
rain 1hr
in
rain 24hr
in
rain mn
in
humidity
%
barometer
mb
20260906091028 81 147 0.0 2.0 0.00 0.00 0.00 75 1012.7
20260906090527 81 156 0.0 2.0 0.00 0.00 0.00 75 1012.5
20260906090025 81 164 1.0 2.0 0.00 0.00 0.00 74 1012.5
20260906085543 82 157 1.0 2.0 0.00 0.00 0.00 74 1012.5
20260906085022 82 168 1.0 3.0 0.00 0.00 0.00 74 1012.5
20260906084520 82 171 1.0 2.0 0.00 0.00 0.00 73 1012.4
20260906084018 82 164 1.0 2.0 0.00 0.00 0.00 73 1012.6
20260906083536 82 170 1.0 3.0 0.00 0.00 0.00 73 1012.7
20260906083055 82 172 1.0 3.0 0.00 0.00 0.00 73 1012.6
20260906082533 82 153 1.0 3.0 0.00 0.00 0.00 72 1012.7
20260906082031 82 199 1.0 3.0 0.00 0.00 0.00 72 1012.5
20260906081530 83 248 0.0 3.0 0.00 0.00 0.00 72 1012.5
20260906081048 83 224 1.0 4.0 0.00 0.00 0.00 71 1012.4
20260906080527 83 205 1.0 3.0 0.00 0.00 0.00 71 1012.6
20260906080025 83 224 1.0 3.0 0.00 0.00 0.00 71 1012.6
20260906075524 83 204 1.0 4.0 0.00 0.00 0.00 71 1012.7
20260906075022 83 215 1.0 3.0 0.00 0.00 0.00 71 1012.9
20260906074540 83 193 2.0 4.0 0.00 0.00 0.00 71 1013.1
20260906074118 83 192 1.0 3.0 0.00 0.00 0.00 71 1013.0
20260906073517 83 187 1.0 4.0 0.00 0.00 0.00 71 1012.9
20260906073055 83 208 1.0 3.0 0.00 0.00 0.00 70 1013.0
20260906072533 83 189 1.0 3.0 0.00 0.00 0.00 70 1013.1
20260906072051 84 149 1.0 3.0 0.00 0.00 0.00 70 1013.0
20260906071529 84 146 1.0 3.0 0.00 0.00 0.00 70 1012.9
20260906071027 84 182 2.0 4.0 0.00 0.00 0.00 70 1012.7
20260906070525 84 170 1.0 3.0 0.00 0.00 0.00 69 1012.7
20260906070023 84 203 1.0 3.0 0.00 0.00 0.00 69 1012.8
20260906065521 84 190 1.0 3.0 0.00 0.00 0.00 69 1012.8
20260906065059 84 184 1.0 3.0 0.00 0.00 0.00 69 1013.0
20260906064517 85 198 1.0 4.0 0.00 0.00 0.00 68 1013.1
20260906064035 84 227 1.0 3.0 0.00 0.00 0.00 69 1013.1
20260906063533 85 221 1.0 2.0 0.00 0.00 0.00 68 1013.2
20260906063032 85 212 1.0 3.0 0.00 0.00 0.00 68 1013.2
20260906062531 85 228 1.0 4.0 0.00 0.00 0.00 67 1013.1
20260906062029 85 217 1.0 3.0 0.00 0.00 0.00 67 1013.0
20260906061528 85 214 1.0 3.0 0.00 0.00 0.00 67 1013.0
20260906061026 85 232 2.0 5.0 0.00 0.00 0.00 68 1013.0
20260906060524 85 224 1.0 4.0 0.00 0.00 0.00 68 1013.1
20260906060022 85 206 1.0 4.0 0.00 0.00 0.00 68 1013.1
20260906055520 85 200 1.0 5.0 0.00 0.00 0.00 67 1013.1
20260906055018 85 237 0.0 2.0 0.00 0.00 0.00 67 1013.0
20260906054517 86 209 1.0 3.0 0.00 0.00 0.00 67 1013.0
20260906054055 86 190 1.0 3.0 0.00 0.00 0.00 67 1012.9
20260906053533 86 208 1.0 3.0 0.00 0.00 0.00 66 1012.9
20260906053031 86 187 1.0 3.0 0.00 0.00 0.00 67 1013.0
20260906052529 86 185 1.0 3.0 0.00 0.00 0.00 66 1013.1
20260906052027 86 183 1.0 4.0 0.00 0.00 0.00 66 1013.2
20260906051525 86 174 2.0 4.0 0.00 0.00 0.00 65 1013.1
20260906051023 86 186 2.0 5.0 0.00 0.00 0.00 65 1013.1
20260906050522 86 187 2.0 3.0 0.00 0.00 0.00 65 1013.1
20260906050040 86 189 2.0 4.0 0.00 0.00 0.00 65 1013.0
20260906045517 86 187 2.0 4.0 0.00 0.00 0.00 64 1013.1
20260906045016 87 189 2.0 4.0 0.00 0.00 0.00 64 1013.1
20260906044554 87 202 2.0 3.0 0.00 0.00 0.00 64 1013.0
20260906044032 87 182 1.0 3.0 0.00 0.00 0.00 63 1013.0
20260906043531 87 185 2.0 4.0 0.00 0.00 0.00 63 1013.1
20260906043049 87 200 2.0 4.0 0.00 0.00 0.00 63 1012.9
20260906042526 87 184 2.0 4.0 0.00 0.00 0.00 63 1012.7
20260906042044 87 193 2.0 6.0 0.00 0.00 0.00 62 1012.7
20260906041523 87 178 2.0 6.0 0.00 0.00 0.00 62 1012.9
20260906041021 88 177 2.0 6.0 0.00 0.00 0.00 61 1012.9
20260906040519 88 201 2.0 4.0 0.00 0.00 0.00 61 1012.8
20260906040017 88 201 2.0 6.0 0.00 0.00 0.00 61 1012.7
20260906035515 88 206 2.0 6.0 0.00 0.00 0.00 61 1012.9
20260906035033 88 187 2.0 6.0 0.00 0.00 0.00 60 1012.9
20260906034532 88 184 2.0 5.0 0.00 0.00 0.00 60 1012.9
20260906034029 88 192 1.0 6.0 0.00 0.00 0.00 60 1013.0
20260906033528 88 186 2.0 6.0 0.00 0.00 0.00 59 1012.9
20260906033026 88 179 2.0 4.0 0.00 0.00 0.00 59 1013.0
20260906032523 88 187 2.0 5.0 0.00 0.00 0.00 59 1013.0
20260906032021 89 185 1.0 4.0 0.00 0.00 0.00 59 1012.9
20260906031519 89 157 3.0 10.0 0.00 0.00 0.00 58 1012.9
20260906031037 89 163 3.0 6.0 0.00 0.00 0.00 58 1013.0
20260906030535 89 172 2.0 8.0 0.00 0.00 0.00 57 1012.9
20260906030053 89 155 4.0 7.0 0.00 0.00 0.00 57 1013.0
20260906025531 89 174 3.0 7.0 0.00 0.00 0.00 57 1012.9
20260906025029 89 166 3.0 8.0 0.00 0.00 0.00 57 1012.9
20260906024547 89 179 2.0 6.0 0.00 0.00 0.00 57 1012.8
20260906024025 89 149 2.0 5.0 0.00 0.00 0.00 56 1012.9
20260906023523 90 160 3.0 7.0 0.00 0.00 0.00 56 1012.8
20260906023022 90 167 3.0 7.0 0.00 0.00 0.00 55 1012.6
20260906022520 90 159 3.0 6.0 0.00 0.00 0.00 55 1012.6
20260906022019 90 182 2.0 6.0 0.00 0.00 0.00 54 1012.3
20260906021536 91 145 4.0 9.0 0.00 0.00 0.00 54 1012.3
20260906021034 91 145 3.0 8.0 0.00 0.00 0.00 53 1012.3
20260906020553 91 150 3.0 10.0 0.00 0.00 0.00 53 1012.3
20260906020031 92 144 4.0 7.0 0.00 0.00 0.00 52 1012.2
20260906015529 92 166 3.0 7.0 0.00 0.00 0.00 52 1011.9
20260906015028 92 177 3.0 8.0 0.00 0.00 0.00 51 1011.9
20260906014526 93 153 4.0 12.0 0.00 0.00 0.00 49 1011.8
20260906014024 93 137 4.0 10.0 0.00 0.00 0.00 48 1011.7
20260906013542 94 110 6.0 13.0 0.00 0.00 0.00 46 1011.5
20260906013020 94 130 3.0 10.0 0.00 0.00 0.00 43 1011.3
20260906012518 95 113 1.0 4.0 0.00 0.00 0.00 43 1011.2
20260906012016 95 101 2.0 4.0 0.00 0.00 0.00 43 1011.3
20260906011535 95 108 3.0 5.0 0.00 0.00 0.00 43 1011.2
20260906011113 95 107 3.0 5.0 0.00 0.00 0.00 42 1011.2
20260906010531 95 116 2.0 5.0 0.00 0.00 0.00 42 1011.2
20260906010029 96 119 3.0 6.0 0.00 0.00 0.00 41 1011.2
20260906005527 96 120 1.0 5.0 0.00 0.00 0.00 41 1011.1
20260906005025 96 110 3.0 5.0 0.00 0.00 0.00 41 1011.2
20260906004523 96 113 3.0 6.0 0.00 0.00 0.00 40 1011.2
20260906004022 96 103 3.0 5.0 0.00 0.00 0.00 40 1011.2
20260906003519 97 97 2.0 4.0 0.00 0.00 0.00 40 1011.1
20260906003017 97 108 2.0 5.0 0.00 0.00 0.00 39 1011.2
20260906002516 97 109 3.0 6.0 0.00 0.00 0.00 39 1011.1
20260906002054 97 93 3.0 8.0 0.00 0.00 0.00 39 1011.2
20260906001532 98 116 2.0 6.0 0.00 0.00 0.00 39 1011.2
20260906001050 98 123 2.0 5.0 0.00 0.00 0.00 39 1011.2
20260906000528 97 113 2.0 5.0 0.00 0.00 0.00 39 1011.0
20260906000026 98 85 4.0 8.0 0.00 0.00 0.00 39 1011.0
20260905235524 98 100 3.0 5.0 0.00 0.00 0.00 38 1011.0
20260905235022 98 127 2.0 6.0 0.00 0.00 0.00 39 1010.9
20260905234521 98 121 3.0 6.0 0.00 0.00 0.00 39 1011.0
20260905234019 98 98 3.0 7.0 0.00 0.00 0.00 39 1011.0
20260905233517 98 74 4.0 7.0 0.00 0.00 0.00 40 1011.0
20260905233055 98 81 4.0 9.0 0.00 0.00 0.00 40 1011.0
20260905232533 99 88 5.0 8.0 0.00 0.00 0.00 39 1011.0
20260905232032 100 97 2.0 6.0 0.00 0.00 0.00 38 1011.1
20260905231530 99 115 3.0 7.0 0.00 0.00 0.00 38 1011.0
20260905231028 100 104 2.0 4.0 0.00 0.00 0.00 37 1011.0
20260905230526 100 152 2.0 5.0 0.00 0.00 0.00 37 1010.9
20260905230024 100 115 3.0 7.0 0.00 0.00 0.00 38 1010.9
20260905225543 100 177 3.0 5.0 0.00 0.00 0.00 38 1011.0
20260905225021 99 112 3.0 7.0 0.00 0.00 0.00 38 1010.9
20260905224540 100 84 2.0 6.0 0.00 0.00 0.00 38 1010.9
20260905224017 101 116 3.0 5.0 0.00 0.00 0.00 37 1010.9
20260905223535 101 134 3.0 9.0 0.00 0.00 0.00 37 1010.9
20260905223033 100 144 2.0 5.0 0.00 0.00 0.00 37 1010.9
20260905222531 100 257 2.0 6.0 0.00 0.00 0.00 37 1010.9
20260905222030 101 115 2.0 5.0 0.00 0.00 0.00 36 1011.1
20260905221528 100 181 2.0 6.0 0.00 0.00 0.00 37 1011.1
20260905221026 101 148 3.0 6.0 0.00 0.00 0.00 37 1011.1
20260905220524 100 206 3.0 7.0 0.00 0.00 0.00 37 1011.0
20260905220042 99 84 4.0 6.0 0.00 0.00 0.00 37 1011.1
20260905215520 100 84 4.0 7.0 0.00 0.00 0.00 36 1011.0
20260905215038 101 215 2.0 5.0 0.00 0.00 0.00 35 1011.2
20260905214516 100 208 3.0 7.0 0.00 0.00 0.00 36 1011.2
20260905214034 100 95 2.0 5.0 0.00 0.00 0.00 36 1011.3
20260905213532 101 133 3.0 6.0 0.00 0.00 0.00 35 1011.5
20260905213031 100 115 3.0 8.0 0.00 0.00 0.00 36 1011.4
20260905212549 101 93 4.0 7.0 0.00 0.00 0.00 36 1011.4
20260905212027 102 186 2.0 6.0 0.00 0.00 0.00 36 1011.5
20260905211547 101 106 3.0 7.0 0.00 0.00 0.00 36 1011.5
20260905211022 102 230 3.0 5.0 0.00 0.00 0.00 36 1011.6
20260905210520 102 241 3.0 6.0 0.00 0.00 0.00 36 1011.8
20260905210018 102 231 3.0 7.0 0.00 0.00 0.00 36 1011.8
20260905205516 100 198 2.0 5.0 0.00 0.00 0.00 37 1011.9
20260905205034 100 71 2.0 6.0 0.00 0.00 0.00 37 1012.0
20260905204532 102 156 3.0 6.0 0.00 0.00 0.00 36 1012.0
20260905204030 103 162 2.0 5.0 0.00 0.00 0.00 35 1012.0
20260905203548 103 248 3.0 6.0 0.00 0.00 0.00 35 1012.1
20260905203026 103 216 2.0 5.0 0.00 0.00 0.00 35 1012.1
20260905202524 103 220 3.0 6.0 0.00 0.00 0.00 35 1012.1
20260905202023 102 230 3.0 7.0 0.00 0.00 0.00 36 1012.3
20260905201521 102 197 3.0 7.0 0.00 0.00 0.00 36 1012.4
20260905201018 102 195 2.0 6.0 0.00 0.00 0.00 37 1012.4
20260905200516 100 144 2.0 6.0 0.00 0.00 0.00 39 1012.4
20260905200035 99 89 3.0 6.0 0.00 0.00 0.00 40 1012.5
20260905195533 99 81 4.0 8.0 0.00 0.00 0.00 40 1012.7
20260905195032 99 58 3.0 9.0 0.00 0.00 0.00 39 1012.7
20260905194529 100 114 3.0 7.0 0.00 0.00 0.00 39 1012.9
20260905194028 100 153 3.0 10.0 0.00 0.00 0.00 38 1013.0
20260905193526 98 153 2.0 5.0 0.00 0.00 0.00 40 1013.1
20260905193043 99 85 4.0 7.0 0.00 0.00 0.00 40 1013.1
20260905192522 99 117 4.0 7.0 0.00 0.00 0.00 39 1013.3
20260905192020 99 95 4.0 9.0 0.00 0.00 0.00 39 1013.3
20260905191519 100 162 4.0 7.0 0.00 0.00 0.00 38 1013.4
20260905191017 99 183 3.0 11.0 0.00 0.00 0.00 40 1013.5
20260905190516 98 63 3.0 13.0 0.00 0.00 0.00 42 1013.4
20260905190035 97 54 2.0 6.0 0.00 0.00 0.00 43 1013.5
20260905185533 98 95 3.0 6.0 0.00 0.00 0.00 41 1013.6
20260905185032 98 144 4.0 20.0 0.00 0.00 0.00 41 1013.7
20260905184530 98 98 3.0 6.0 0.00 0.00 0.00 42 1013.7
20260905184028 98 105 3.0 7.0 0.00 0.00 0.00 42 1013.8
20260905183525 98 125 3.0 6.0 0.00 0.00 0.00 41 1013.9
20260905183044 99 130 3.0 9.0 0.00 0.00 0.00 40 1014.0
20260905182522 98 232 2.0 6.0 0.00 0.00 0.00 41 1014.2
20260905182020 98 220 4.0 8.0 0.00 0.00 0.00 41 1014.2
20260905181518 98 95 2.0 7.0 0.00 0.00 0.00 43 1014.2
20260905181016 97 115 3.0 7.0 0.00 0.00 0.00 43 1014.5
20260905180554 98 127 4.0 11.0 0.00 0.00 0.00 42 1014.4
20260905180032 97 109 2.0 6.0 0.00 0.00 0.00 44 1014.5
20260905175530 96 122 3.0 9.0 0.00 0.00 0.00 44 1014.6
20260905175028 98 158 3.0 6.0 0.00 0.00 0.00 43 1014.7
20260905174527 97 120 3.0 8.0 0.00 0.00 0.00 44 1014.6
20260905174045 96 116 4.0 9.0 0.00 0.00 0.00 44 1014.7
20260905173523 97 132 4.0 12.0 0.00 0.00 0.00 43 1014.7
20260905173021 96 109 2.0 6.0 0.00 0.00 0.00 44 1014.9
20260905172519 95 89 3.0 7.0 0.00 0.00 0.00 45 1014.9
20260905172017 97 136 3.0 7.0 0.00 0.00 0.00 43 1015.0
20260905171555 96 230 3.0 8.0 0.00 0.00 0.00 44 1015.0
20260905171053 97 219 3.0 8.0 0.00 0.00 0.00 43 1015.0
20260905170531 96 194 2.0 5.0 0.00 0.00 0.00 43 1015.1
20260905170050 95 153 3.0 6.0 0.00 0.00 0.00 44 1015.0
20260905165527 95 80 3.0 5.0 0.00 0.00 0.00 46 1015.2
20260905165025 96 225 4.0 9.0 0.00 0.00 0.00 45 1015.1
20260905164523 96 191 2.0 4.0 0.00 0.00 0.00 44 1015.2
20260905164042 94 211 2.0 4.0 0.00 0.00 0.00 47 1015.1
20260905163520 95 128 2.0 6.0 0.00 0.00 0.00 46 1015.3
20260905163039 94 222 4.0 8.0 0.00 0.00 0.00 47 1015.2
20260905162516 95 200 2.0 7.0 0.00 0.00 0.00 47 1015.3
20260905162034 94 227 2.0 5.0 0.00 0.00 0.00 48 1015.2
20260905161532 94 194 3.0 5.0 0.00 0.00 0.00 48 1015.3
20260905161051 93 223 2.0 6.0 0.00 0.00 0.00 48 1015.2
20260905160528 93 239 3.0 5.0 0.00 0.00 0.00 49 1015.2
20260905160046 92 238 3.0 5.0 0.00 0.00 0.00 50 1015.1
20260905155524 93 222 3.0 6.0 0.00 0.00 0.00 50 1015.3
20260905155023 92 227 2.0 5.0 0.00 0.00 0.00 50 1015.3
20260905154521 92 251 2.0 4.0 0.00 0.00 0.00 51 1015.5
20260905154040 91 236 3.0 6.0 0.00 0.00 0.00 52 1015.4
20260905153518 91 280 3.0 8.0 0.00 0.00 0.00 52 1015.2
20260905153016 91 273 3.0 5.0 0.00 0.00 0.00 53 1015.1
20260905152534 90 233 4.0 6.0 0.00 0.00 0.00 54 1015.1
20260905152032 90 249 2.0 8.0 0.00 0.00 0.00 54 1015.1
20260905151530 90 248 3.0 7.0 0.00 0.00 0.00 54 1015.1
20260905151028 89 245 4.0 7.0 0.00 0.00 0.00 55 1015.0
20260905150526 89 233 4.0 8.0 0.00 0.00 0.00 55 1015.0
20260905150025 88 232 4.0 10.0 0.00 0.00 0.00 55 1015.1
20260905145522 88 232 5.0 10.0 0.00 0.00 0.00 55 1015.0
20260905145021 88 256 3.0 7.0 0.00 0.00 0.00 58 1015.0
20260905144519 87 230 4.0 8.0 0.00 0.00 0.00 58 1015.1
20260905144017 87 231 4.0 8.0 0.00 0.00 0.00 59 1015.2
20260905143535 87 222 3.0 7.0 0.00 0.00 0.00 61 1015.1
20260905143033 87 222 3.0 8.0 0.00 0.00 0.00 62 1015.2
20260905142532 87 221 3.0 9.0 0.00 0.00 0.00 63 1015.2
20260905142030 86 234 1.0 4.0 0.00 0.00 0.00 64 1015.1
20260905141528 85 227 4.0 9.0 0.00 0.00 0.00 65 1015.1
20260905141027 85 224 4.0 8.0 0.00 0.00 0.00 67 1015.1
20260905140525 85 217 3.0 7.0 0.00 0.00 0.00 68 1015.1
20260905140024 85 225 4.0 8.0 0.00 0.00 0.00 69 1014.9
20260905135522 84 216 3.0 7.0 0.00 0.00 0.00 70 1014.9
20260905135021 84 225 3.0 7.0 0.00 0.00 0.00 71 1014.9
20260905134519 84 222 4.0 8.0 0.00 0.00 0.00 71 1014.9
20260905134017 83 231 4.0 7.0 0.00 0.00 0.00 72 1014.8
20260905133515 83 236 4.0 6.0 0.00 0.00 0.00 72 1014.7
20260905133034 83 220 3.0 7.0 0.00 0.00 0.00 73 1014.8
20260905132532 83 211 3.0 5.0 0.00 0.00 0.00 73 1014.8
20260905132030 82 218 2.0 9.0 0.00 0.00 0.00 74 1014.7
20260905131528 82 226 3.0 6.0 0.00 0.00 0.00 74 1014.7
20260905131046 82 220 3.0 6.0 0.00 0.00 0.00 75 1014.6
20260905130524 81 213 2.0 6.0 0.00 0.00 0.00 76 1014.7
20260905130022 81 216 2.0 5.0 0.00 0.00 0.00 76 1014.5
20260905125601 81 222 2.0 4.0 0.00 0.00 0.00 77 1014.5
20260905125019 80 201 3.0 5.0 0.00 0.00 0.00 78 1014.5
20260905124517 80 218 2.0 5.0 0.00 0.00 0.00 78 1014.3
20260905124035 80 212 2.0 4.0 0.00 0.00 0.00 79 1014.3
20260905123533 79 217 2.0 3.0 0.00 0.00 0.00 79 1014.3
20260905123030 79 169 1.0 3.0 0.00 0.00 0.00 79 1014.3
20260905122528 79 188 1.0 2.0 0.00 0.00 0.00 79 1014.3
20260905122026 79 197 1.0 4.0 0.00 0.00 0.00 79 1014.1
20260905121525 79 203 1.0 3.0 0.00 0.00 0.00 79 1014.1
20260905121042 79 172 1.0 3.0 0.00 0.00 0.00 79 1014.1
20260905120520 79 195 1.0 3.0 0.00 0.00 0.00 79 1014.2
20260905120019 79 315 1.0 3.0 0.00 0.00 0.00 79 1014.3
20260905115517 80 260 1.0 4.0 0.00 0.00 0.00 78 1014.1
20260905115016 80 227 1.0 4.0 0.00 0.00 0.00 78 1014.1
20260905114554 80 202 2.0 4.0 0.00 0.00 0.00 78 1013.9
20260905114033 80 216 2.0 5.0 0.00 0.00 0.00 78 1013.8
20260905113530 80 201 2.0 4.0 0.00 0.00 0.00 78 1013.8
20260905113028 80 199 1.0 4.0 0.00 0.00 0.00 77 1013.8
20260905112526 80 202 2.0 4.0 0.00 0.00 0.00 77 1013.6
20260905112044 80 190 2.0 4.0 0.00 0.00 0.00 77 1013.8
20260905111522 80 209 1.0 4.0 0.00 0.00 0.00 78 1013.7
20260905111019 80 193 2.0 3.0 0.00 0.00 0.00 78 1013.8
20260905110537 80 257 1.0 4.0 0.00 0.00 0.00 78 1013.8
20260905110016 80 338 2.0 4.0 0.00 0.00 0.00 78 1013.7
20260905105533 80 194 2.0 4.0 0.00 0.00 0.00 77 1013.8
20260905105031 80 246 1.0 3.0 0.00 0.00 0.00 77 1014.0
20260905104529 80 195 1.0 3.0 0.00 0.00 0.00 77 1014.0
20260905104028 80 189 1.0 3.0 0.00 0.00 0.00 77 1014.1
20260905103526 80 192 1.0 3.0 0.00 0.00 0.00 76 1014.1
20260905103024 81 169 1.0 2.0 0.00 0.00 0.00 76 1014.2
20260905102523 81 177 1.0 2.0 0.00 0.00 0.00 76 1014.2
20260905102022 81 187 1.0 2.0 0.00 0.00 0.00 75 1014.1
20260905101521 81 196 1.0 2.0 0.00 0.00 0.00 75 1014.0
20260905101019 81 210 1.0 6.0 0.00 0.00 0.00 74 1014.0
20260905100518 81 220 2.0 5.0 0.00 0.00 0.00 74 1013.9
20260905100036 82 220 2.0 4.0 0.00 0.00 0.00 74 1013.8
20260905095554 82 219 3.0 6.0 0.00 0.00 0.00 73 1013.9
20260905095032 82 215 4.0 10.0 0.00 0.00 0.00 72 1013.8
20260905094530 82 218 4.0 8.0 0.00 0.00 0.00 72 1013.7
20260905094027 82 220 4.0 8.0 0.00 0.00 0.00 72 1013.7
20260905093525 82 219 4.0 8.0 0.00 0.00 0.00 72 1013.5
20260905093023 82 222 2.0 10.0 0.00 0.00 0.00 72 1013.5
20260905092601 82 224 3.0 6.0 0.00 0.00 0.00 73 1013.6
20260905092019 82 214 3.0 7.0 0.00 0.00 0.00 73 1013.7
20260905091516 82 208 2.0 4.0 0.00 0.00 0.00 73 1013.8